Hourly Data Report for October 18, 2013

All times are specified in Local Standard Time (LST). Add 1 hour to adjust for Daylight Saving Time where and when it is observed.

CAPE DORSET A
NUNAVUT

64°13'49.000" N
76°31'30.000" W
48.20 m
2400637
71366
YTE

Download Data

Hourly Data (October 2013)
Hourly Data Report for October 18, 2013
Temp Definition
°C
Dew Point Temp Definition
°C
Rel Hum Definition
%
Wind Dir Definition
10's deg

Wind Spd Definition
km/h
Visibility Definition
km
Stn Press Definition
kPa
Hmdx Definition


Wind Chill Definition


Weather Definition


TIME
00:00 Legend Double Dagger 1.1 0.4 95 15 37 12.9 99.40     LegendNANA
01:00 Legend Double Dagger 1.1 0.4 95 16 30 16.1 99.40     LegendNANA
02:00 Legend Double Dagger 1.3 0.1 92 20 22 16.1 99.45     LegendNANA
03:00 Legend Double Dagger 1.0 -0.4 90 20 21 16.1 99.50     LegendNANA
04:00 Legend Double Dagger 0.9 -1.2 86 16 9 16.1 99.56     LegendNANA
05:00 Legend Double Dagger 0.8 -0.9 89 18 18 16.1 99.62     LegendNANA
06:00 Legend Double Dagger 0.7 -0.9 89 18 21 16.1 99.66     LegendNANA
07:00 Legend Double Dagger 0.7 -0.6 91 16 13 16.1 99.74     LegendNANA
08:00 Legend Double Dagger 0.5 -0.7 92 18 15 16.1 99.79     LegendNANA
09:00 Legend Double Dagger 0.7 -0.9 89 18 17 16.1 99.83     LegendNANA
10:00 Legend Double Dagger 1.0 -1.1 86 20 30 16.1 99.88     LegendNANA
11:00 Legend Double Dagger 0.6 -1.3 87 20 24 16.1 99.97     LegendNANA
12:00 Legend Double Dagger 0.9 -2.1 81 20 22 16.1 100.03     LegendNANA
13:00 Legend Double Dagger 1.0 -2.4 78 21 22 16.1 100.11     LegendNANA
14:00 Legend Double Dagger 1.1 -2.0 80 20 24 16.1 100.17     LegendNANA
15:00 Legend Double Dagger 1.1 -2.3 78 19 21 16.1 100.24     LegendNANA
16:00 Legend Double Dagger 0.9 -1.2 86 23 18 16.1 100.33     LegendNANA
17:00 Legend Double Dagger 0.7 -2.0 82 22 22 16.1 100.38     LegendNANA
18:00 Legend Double Dagger 0.3 -1.2 90 22 15 12.9 100.47     LegendNANA
19:00 Legend Double Dagger 0.6 -1.6 85 20 17 16.1 100.53     LegendNANA
20:00 Legend Double Dagger 1.0 -1.4 84 18 13 16.1 100.57     LegendNANA
21:00 Legend Double Dagger 0.7 -2.0 82 20 13 16.1 100.61     LegendNANA
22:00 Legend Double Dagger 0.8 -1.3 86 16 11 16.1 100.65     LegendNANA
23:00 Legend Double Dagger 0.6 -1.2 88 17 11 16.1 100.67     LegendNANA

Notes on Data Quality.

Legend

  • E = Estimated
  • M = Missing
  • NA = Not Available
  • ‡ = Partner data that is not subject to review by the National Climate Archives
Date modified: